Powrót do katalogu

TESLA ROADSTER/FALCON 9H

AktywnyNaukaHEO
NORAD 43205·PAYLOAD·🇺🇸 United States

Wystrzelony Feb 6, 2018 z Cape Canaveral Space Force Station

Loading…

Następne Przeloty (najbliższe 24 godziny)

TLE

NieaktualneSource: Space-Track

Epoka: Feb 7, 2018, 05:19 UTC

1 43205U 18017A   18038.22157858  .00505133 -52681-6  23951-2 0  9997
2 43205  29.0196 286.7252 3400758 181.1849 342.1043  8.76376464    24

Śledź TESLA ROADSTER/FALCON 9H w czasie rzeczywistym z AllMySat

Download on the App Store